Location: Quedlinburg
(51.7921°N, 11.1414°E)
Time: 20:42:42
(UTC+02:00)

CUBESAT XI-V - Pass Details

Date: 18 March 2026
Orbit: 643 x 664 km, 98.3° (Epoch: 14 April)

Event Time Altitude Azimuth Distance (km) Brightness Sun altitude
Exits shadow 04:42:33 12° 305° (NW) 1,962 ? -16.1°
Drops below altitude 10° 04:43:00 10° 310° (NW) 2,067 ? -16.0°
Sets 04:46:01 0° 332° (NNW) 2,980 ? -15.6°
